When you browse on this site, cookies collect data to enhance your experience and personalize the content and advertising you see.
Visit our Privacy Policy to learn more. By continuing to use the site, you agree to this use of cookies and data.
  • In Hungary
  • List of Countries
  • For 7 days
  • Water Temperature
  • Weather Map
  • News
  • Weather Widgets
  • user-avatar
    Login

    Hourly Weather Kodinka

    Today, 19 January, Sunday

    Time Temperature Precipitation Wind Pressure Humidity
    00:00 -8°C° 0 mm 3 mps 749 mmHg 91%
    01:00 -9°C° 0 mm 3 mps 750 mmHg 93%
    02:00 -9°C° 0 mm 2 mps 750 mmHg 91%
    03:00 -12°C° 0 mm 2 mps 751 mmHg 89%
    04:00 -11°C° 0 mm 1 mps 752 mmHg 87%
    05:00 -12°C° 0 mm 1 mps 752 mmHg 86%
    06:00 -13°C° 0 mm 1 mps 752 mmHg 86%
    07:00 -14°C° 0 mm 0 mps 752 mmHg 86%
    08:00 -13°C° 0 mm 1 mps 753 mmHg 87%
    09:00 -12°C° 0 mm 1 mps 753 mmHg 88%
    10:00 -14°C° 0 mm 2 mps 753 mmHg 89%
    11:00 -11°C° 0 mm 1 mps 753 mmHg 88%
    12:00 -10°C° 0 mm 1 mps 753 mmHg 88%
    13:00 -9°C° 0 mm 1 mps 753 mmHg 88%
    14:00 -9°C° 0 mm 1 mps 753 mmHg 89%
    15:00 -9°C° 0 mm 1 mps 753 mmHg 90%
    16:00 -9°C° 0 mm 1 mps 753 mmHg 91%
    17:00 -9°C° 0.1 mm 2 mps 752 mmHg 92%
    18:00 -9°C° 0.1 mm 2 mps 752 mmHg 94%
    19:00 -9°C° 0.1 mm 2 mps 752 mmHg 96%
    20:00 -8°C° 0.3 mm 2 mps 752 mmHg 95%
    21:00 -9°C° 0.3 mm 3 mps 751 mmHg 95%
    22:00 -9°C° 0.3 mm 3 mps 751 mmHg 95%
    23:00 -9°C° 0.2 mm 3 mps 751 mmHg 95%

    Tomorrow, 20 January, Monday

    Time Temperature Precipitation Wind Pressure Humidity
    00:00 -8°C° 0.2 mm 3 mps 750 mmHg 95%
    01:00 -8°C° 0.2 mm 3 mps 749 mmHg 95%
    02:00 -8°C° 0.3 mm 3 mps 749 mmHg 95%
    03:00 -8°C° 0.3 mm 3 mps 749 mmHg 95%
    04:00 -7°C° 0.3 mm 3 mps 748 mmHg 96%
    05:00 -7°C° 0.4 mm 3 mps 748 mmHg 96%
    06:00 -7°C° 0.4 mm 3 mps 747 mmHg 96%
    07:00 -7°C° 0.4 mm 3 mps 746 mmHg 96%
    08:00 -6°C° 0.6 mm 2 mps 746 mmHg 96%
    09:00 -6°C° 0.6 mm 2 mps 746 mmHg 96%
    10:00 -6°C° 0.6 mm 2 mps 746 mmHg 96%
    11:00 -6°C° 0.5 mm 2 mps 745 mmHg 95%
    12:00 -7°C° 0.5 mm 3 mps 745 mmHg 95%
    13:00 -8°C° 0.5 mm 3 mps 745 mmHg 95%
    14:00 -8°C° 0.3 mm 3 mps 745 mmHg 95%
    15:00 -9°C° 0.3 mm 3 mps 745 mmHg 95%
    16:00 -10°C° 0.3 mm 3 mps 745 mmHg 95%
    17:00 -12°C° 0.1 mm 3 mps 745 mmHg 95%
    18:00 -13°C° 0.1 mm 3 mps 745 mmHg 96%
    19:00 -13°C° 0.1 mm 2 mps 745 mmHg 96%
    20:00 -14°C° 0 mm 2 mps 746 mmHg 96%
    21:00 -14°C° 0 mm 2 mps 746 mmHg 96%
    22:00 -15°C° 0 mm 2 mps 746 mmHg 96%
    23:00 -15°C° 0 mm 2 mps 746 mmHg 96%

    Day after tomorrow, 21 January, Tuesday

    Time Temperature Precipitation Wind Pressure Humidity
    00:00 -16°C° 0 mm 2 mps 746 mmHg 96%
    01:00 -17°C° 0 mm 2 mps 746 mmHg 97%
    02:00 -18°C° 0 mm 2 mps 746 mmHg 97%
    03:00 -18°C° 0 mm 2 mps 746 mmHg 98%
    04:00 -17°C° 0 mm 1 mps 746 mmHg 98%
    05:00 -18°C° 0 mm 1 mps 746 mmHg 99%
    06:00 -18°C° 0 mm 1 mps 746 mmHg 99%
    07:00 -19°C° 0 mm 1 mps 746 mmHg 99%
    08:00 -18°C° 0 mm 1 mps 746 mmHg 99%
    09:00 -18°C° 0 mm 1 mps 746 mmHg 98%
    10:00 -18°C° 0 mm 1 mps 746 mmHg 98%
    11:00 -17°C° 0 mm 1 mps 746 mmHg 97%
    12:00 -17°C° 0 mm 1 mps 745 mmHg 96%
    13:00 -16°C° 0 mm 1 mps 745 mmHg 95%
    14:00 -17°C° 0 mm 1 mps 744 mmHg 96%
    15:00 -20°C° 0 mm 2 mps 744 mmHg 97%
    16:00 -21°C° 0 mm 2 mps 744 mmHg 98%
    17:00 -21°C° 0 mm 2 mps 743 mmHg 99%
    18:00 -21°C° 0 mm 2 mps 742 mmHg 99%
    19:00 -24°C° 0 mm 3 mps 742 mmHg 99%
    20:00 -23°C° 0 mm 3 mps 741 mmHg 98%
    21:00 -23°C° 0 mm 3 mps 741 mmHg 98%
    22:00 -24°C° 0 mm 4 mps 740 mmHg 98%
    23:00 -24°C° 0 mm 4 mps 739 mmHg 97%

    22 January, Wednesday

    Time Temperature Precipitation Wind Pressure Humidity
    00:00 -23°C° 0 mm 4 mps 739 mmHg 97%
    01:00 -22°C° 0 mm 4 mps 738 mmHg 96%
    02:00 -22°C° 0 mm 4 mps 737 mmHg 97%
    03:00 -22°C° 0 mm 4 mps 736 mmHg 97%
    04:00 -22°C° 0 mm 4 mps 735 mmHg 97%
    05:00 -20°C° 0 mm 4 mps 734 mmHg 96%
    06:00 -20°C° 0 mm 5 mps 733 mmHg 95%
    07:00 -19°C° 0 mm 5 mps 732 mmHg 94%
    08:00 -17°C° 0.1 mm 5 mps 731 mmHg 94%
    09:00 -14°C° 0.1 mm 5 mps 730 mmHg 93%
    10:00 -12°C° 0.1 mm 5 mps 730 mmHg 93%
    11:00 -11°C° 0.2 mm 6 mps 729 mmHg 93%
    12:00 -10°C° 0.2 mm 6 mps 728 mmHg 93%
    13:00 -9°C° 0.2 mm 6 mps 728 mmHg 93%
    14:00 -9°C° 0.2 mm 6 mps 727 mmHg 92%
    15:00 -9°C° 0.2 mm 6 mps 726 mmHg 92%
    16:00 -8°C° 0.2 mm 5 mps 726 mmHg 91%
    17:00 -8°C° 0.1 mm 5 mps 725 mmHg 91%
    18:00 -8°C° 0.1 mm 5 mps 725 mmHg 92%
    19:00 -8°C° 0.1 mm 4 mps 725 mmHg 92%
    20:00 -8°C° 0 mm 4 mps 725 mmHg 92%
    21:00 -8°C° 0 mm 4 mps 724 mmHg 92%
    22:00 -8°C° 0 mm 3 mps 724 mmHg 93%
    23:00 -8°C° 0 mm 3 mps 724 mmHg 93%

    23 January, Thursday

    Time Temperature Precipitation Wind Pressure Humidity
    00:00 -9°C° 0 mm 3 mps 723 mmHg 93%
    01:00 -9°C° 0 mm 2 mps 723 mmHg 94%
    02:00 -8°C° 0.3 mm 2 mps 722 mmHg 94%
    03:00 -7°C° 0.3 mm 2 mps 722 mmHg 95%
    04:00 -6°C° 0.3 mm 1 mps 722 mmHg 96%
    05:00 -7°C° 0.8 mm 2 mps 722 mmHg 96%
    06:00 -7°C° 0.8 mm 3 mps 722 mmHg 95%
    07:00 -8°C° 0.8 mm 4 mps 722 mmHg 95%
    08:00 -8°C° 0.2 mm 5 mps 723 mmHg 92%
    09:00 -9°C° 0.2 mm 6 mps 724 mmHg 89%
    10:00 -9°C° 0.2 mm 6 mps 724 mmHg 87%
    11:00 -9°C° 0 mm 6 mps 725 mmHg 85%
    12:00 -9°C° 0 mm 6 mps 726 mmHg 83%
    13:00 -8°C° 0 mm 5 mps 727 mmHg 81%
    14:00 -10°C° 0 mm 5 mps 728 mmHg 82%
    15:00 -11°C° 0 mm 5 mps 729 mmHg 82%
    16:00 -11°C° 0 mm 4 mps 730 mmHg 83%
    17:00 -12°C° 0 mm 4 mps 731 mmHg 84%
    18:00 -12°C° 0 mm 4 mps 732 mmHg 85%
    19:00 -12°C° 0 mm 4 mps 732 mmHg 86%
    20:00 -14°C° 0 mm 4 mps 733 mmHg 87%
    21:00 -13°C° 0 mm 3 mps 733 mmHg 88%
    22:00 -14°C° 0 mm 3 mps 734 mmHg 89%
    23:00 -15°C° 0 mm 3 mps 734 mmHg 90%

    24 January, Friday

    Time Temperature Precipitation Wind Pressure Humidity
    00:00 -15°C° 0 mm 3 mps 734 mmHg 91%
    01:00 -16°C° 0 mm 3 mps 735 mmHg 92%
    02:00 -16°C° 0 mm 3 mps 735 mmHg 91%
    03:00 -16°C° 0 mm 3 mps 735 mmHg 90%
    04:00 -17°C° 0 mm 4 mps 736 mmHg 88%
    05:00 -17°C° 0 mm 4 mps 736 mmHg 88%
    06:00 -18°C° 0 mm 4 mps 736 mmHg 88%
    07:00 -18°C° 0 mm 4 mps 737 mmHg 88%
    08:00 -18°C° 0 mm 4 mps 737 mmHg 87%
    09:00 -17°C° 0 mm 4 mps 737 mmHg 87%
    10:00 -17°C° 0 mm 4 mps 738 mmHg 87%
    11:00 -16°C° 0 mm 4 mps 738 mmHg 86%
    12:00 -15°C° 0 mm 4 mps 738 mmHg 85%
    13:00 -14°C° 0 mm 4 mps 738 mmHg 84%
    14:00 -15°C° 0 mm 4 mps 738 mmHg 86%
    15:00 -16°C° 0 mm 4 mps 738 mmHg 87%
    16:00 -16°C° 0 mm 3 mps 738 mmHg 88%
    17:00 -17°C° 0 mm 4 mps 739 mmHg 88%
    18:00 -17°C° 0 mm 4 mps 739 mmHg 88%
    19:00 -18°C° 0 mm 4 mps 739 mmHg 88%
    20:00 -18°C° 0 mm 4 mps 739 mmHg 88%
    21:00 -18°C° 0 mm 4 mps 739 mmHg 88%
    22:00 -18°C° 0 mm 4 mps 739 mmHg 88%
    23:00 -18°C° 0 mm 4 mps 740 mmHg 88%
    Show more